Temperature
20 19 19 19 19 19 19 19 19 19 19 19 19 19 19 19 19 18 18 18 18 18 18 18 18 18 18 18 18 18 18 18 18 17 17 17 17 17 17 17 17 16 17
20 19 19 19 19 19 19 19 19 19 19 19 19 19 19 19 18 18 18 18 18 18 18 18 18 18 18 18 18 18 18 17 17 17 17 17 17 17 17 17 17 17 17
20 19 20 19 19 19 19 19 19 19 19 19 19 19 19 19 18 18 18 18 18 18 18 18 18 18 18 18 18 17 17 17 17 17 17 16 17 17 17 17 17 17 17
19 19 19 19 19 19 19 19 19 19 19 19 19 19 19 18 18 18 18 18 18 18 18 18 18 18 18 18 17 17 17 17 17 17 17 17 16 17 17 17 17 17 17
19 19 19 19 19 19 19 19 19 19 19 19 19 19 18 18 18 18 18 18 18 18 18 18 18 18 18 17 17 17 17 17 17 17 16 16 16 17 17 17 17 17 17
19 19 19 19 19 19 19 19 19 19 19 19 19 19 18 18 18 18 18 18 18 18 18 18 18 18 18 17 17 17 17 17 17 17 16 16 16 17 17 17 17 17 16
20 19 19 19 19 19 19 19 19 19 19 19 19 18 18 18 18 18 18 18 18 18 18 18 18 18 17 17 17 17 17 17 17 17 16 16 16 17 17 17 17 17 16
20 19 19 19 19 19 19 19 19 19 19 19 19 18 18 18 18 18 18 18 18 18 18 18 18 17 17 17 17 17 17 17 17 16 16 16 17 17 17 17 17 17 17
20 19 18 18 19 19 19 19 19 19 19 19 18 18 18 18 18 18 18 18 18 18 18 18 18 17 17 17 17 17 17 17 17 17 16 16 17 17 17 17 17 17 17
19 19 18 18 18 18 19 19 19 18 18 18 18 18 18 18 18 18 18 18 18 18 18 18 17 17 17 17 17 17 17 17 17 17 16 16 17 17 17 17 17 17 16
19 19 19 18 18 18 18 18 18 18 18 18 18 18 18 17 17 17 17 18 18 18 18 17 17 17 17 17 17 17 17 17 17 17 16 17 17 17 17 17 17 16 16
19 19 18 18 18 18 18 18 18 18 18 18 17 17 17 17 17 17 18 18 18 18 17 17 17 17 17 17 17 17 17 17 17 17 16 17 17 17 17 17 17 17 17
19 18 18 18 18 18 18 18 18 18 18 17 17 17 17 17 17 17 17 17 17 17 17 17 17 17 17 17 17 17 17 17 17 17 17 17 17 17 17 17 17 17 17
19 19 18 18 18 18 18 18 18 18 18 18 17 17 17 17 17 17 17 17 17 17 17 17 17 17 17 17 17 17 17 17 17 17 17 17 17 17 17 17 17 17 16
19 19 19 19 18 18 18 18 18 18 18 18 18 17 17 17 17 17 17 17 17 17 17 17 17 17 17 17 17 17 17 17 17 17 17 17 17 17 17 17 17 17 16
19 19 19 19 19 19 19 18 18 18 18 18 17 17 17 17 17 17 17 17 17 17 17 17 17 17 17 17 17 17 17 17 16 16 16 17 17 17 16 16 16 16 16
19 19 19 19 19 19 19 18 18 18 18 18 17 18 18 17 17 17 17 17 17 17 17 17 17 17 17 17 17 17 17 17 16 16 16 16 16 17 17 16 16 16 16
19 19 19 19 19 19 19 19 18 18 18 17 17 18 18 17 17 17 17 17 17 17 17 17 17 17 17 17 17 17 17 17 16 16 16 16 16 16 16 16 16 16 16
20 19 19 19 19 19 19 19 18 18 18 17 17 17 18 18 17 17 17 17 17 17 17 17 17 17 17 17 17 17 17 17 16 16 16 16 16 16 16 16 16 16 16
19 19 19 19 19 19 19 18 18 18 18 17 17 17 17 17 17 17 17 17 17 17 17 17 17 17 17 17 17 17 17 17 17 17 16 17 16 16 16 16 16 16 16
19 19 19 19 19 19 18 18 18 17 18 17 17 17 17 17 17 17 17 17 17 17 17 17 17 16 17 17 17 17 17 17 17 17 17 17 17 16 16 16 16 16 16
19 19 19 19 19 19 19 19 18 18 18 18 17 17 17 17 17 17 17 17 17 17 16 16 16 17 17 17 17 17 18 18 17 17 17 17 17 17 16 16 16 16 16
19 20 19 19 19 19 19 18 18 17 17 17 17 17 18 17 17 17 17 17 17 17 17 16 16 16 17 17 17 17 18 19 19 18 17 17 17 17 17 17 16 16 16
20 20 20 19 19 19 19 18 18 18 17 17 18 17 18 18 17 17 17 17 17 17 17 16 16 16 16 17 17 17 17 18 18 19 18 18 17 17 17 17 17 16 16
20 20 19 19 19 19 19 18 18 18 18 18 17 17 17 17 17 17 17 17 17 17 16 16 16 16 16 17 17 17 17 17 17 18 18 18 18 17 17 17 17 17 16
19 19 19 19 19 19 18 18 18 18 18 17 17 17 17 17 17 17 17 17 17 17 16 17 16 16 17 16 17 17 17 17 17 18 18 18 18 18 17 17 17 17 17
Wind_Speed
13 16 17 14 14 15 16 17 18 18 17 17 17 16 15 15 15 15 15 15 15 15 16 17 17 17 17 17 17 17 17 17 18 19 19 18 18 17 16 16 17 19 18
17 19 18 16 15 16 17 17 18 18 17 17 16 16 15 15 15 15 15 15 15 16 16 17 17 17 17 17 17 17 17 17 17 18 18 18 17 16 14 14 16 17 17
19 20 19 16 16 16 17 17 18 17 17 17 16 15 15 15 14 15 15 15 15 16 16 17 17 17 17 16 17 17 17 16 16 15 14 16 16 15 16 18 19 18 17
20 20 19 18 17 17 17 17 17 17 16 16 15 15 14 14 14 14 15 15 15 16 16 16 17 16 16 16 16 16 16 15 12 10 11 14 16 16 16 17 17 16 16
19 19 20 19 18 17 17 17 17 16 16 15 15 15 14 14 14 14 14 14 15 15 16 16 16 16 15 16 16 16 15 13 8 7 13 14 15 15 16 16 16 16 15
19 19 21 19 18 17 17 16 16 16 15 15 14 14 14 14 14 14 14 14 15 15 15 15 15 15 15 15 15 15 14 10 8 12 12 13 15 15 15 15 15 15 15
19 19 21 19 18 17 17 16 16 15 15 14 14 14 14 14 14 14 14 14 14 15 15 15 14 14 14 14 14 14 11 5 9 12 11 13 15 15 15 15 14 14 14
18 19 21 19 18 17 16 16 15 15 14 14 14 14 14 14 14 14 13 13 14 14 14 14 13 13 13 13 13 12 9 5 11 11 12 14 14 14 14 14 14 13 14
17 18 19 19 18 16 15 15 15 14 14 14 13 13 13 13 13 13 13 13 13 13 13 13 12 12 12 12 12 11 7 1 8 10 11 13 13 13 13 13 13 12 12
16 16 17 17 17 17 16 15 14 14 13 13 13 13 14 13 13 13 13 13 13 13 12 12 11 11 11 11 11 10 8 5 9 10 10 13 12 12 12 12 12 12 11
15 15 15 16 16 15 16 16 15 14 13 13 13 14 14 12 12 12 13 12 12 12 12 11 11 11 11 11 11 10 8 5 8 8 10 14 11 11 11 11 11 11 11
17 16 14 15 15 14 13 14 13 13 13 11 12 12 9 8 8 11 14 11 11 11 11 10 10 10 9 10 11 10 5 6 7 8 11 12 10 10 10 10 10 10 10
18 16 15 14 13 13 11 12 10 10 11 10 11 10 9 9 8 10 10 11 10 11 10 10 9 6 5 6 5 5 5 5 6 7 11 11 9 9 9 9 8 8 8
18 18 16 15 13 12 11 10 10 9 9 9 10 10 9 7 6 7 6 8 8 7 6 6 5 5 5 5 5 5 5 4 5 7 11 10 8 8 8 8 8 7 7
18 18 16 15 14 12 10 9 9 9 9 9 9 9 8 7 6 7 6 5 6 6 7 5 5 5 5 5 4 5 4 5 5 5 10 10 8 7 7 7 7 7 7
19 18 16 16 15 13 11 9 8 9 9 9 9 10 9 8 7 7 7 6 5 5 5 5 5 5 4 4 4 4 4 5 5 4 7 10 9 7 7 7 7 7 7
19 18 17 16 15 14 13 11 9 9 10 9 9 10 10 9 8 7 6 6 6 6 5 5 5 5 4 4 4 4 4 4 5 4 5 6 9 10 8 7 7 7 7
18 18 17 15 15 15 12 11 9 10 10 9 9 11 11 9 9 8 6 6 6 7 6 5 4 4 4 3 3 3 4 4 5 5 5 5 5 7 10 9 8 8 8
18 18 18 17 16 15 13 11 10 9 9 9 10 10 11 11 10 9 6 6 7 6 6 5 5 4 4 4 4 4 4 4 4 5 4 5 5 4 6 11 10 8 8
17 17 17 17 16 15 12 10 9 9 9 10 10 10 11 10 11 9 7 7 8 6 6 4 4 3 3 4 4 4 4 4 4 5 5 6 6 6 6 6 9 10 11
17 17 17 17 16 14 12 12 11 11 11 10 10 11 12 11 11 9 7 8 8 7 6 7 5 6 5 4 4 4 4 5 5 5 5 5 6 6 5 5 6 5 9
18 18 17 17 17 16 13 12 11 11 10 10 9 11 13 13 12 11 9 8 8 7 7 7 6 5 5 5 4 4 4 5 6 7 6 6 6 6 7 8 6 6 6
18 18 17 17 17 17 15 11 10 9 9 10 11 11 13 14 13 12 11 10 8 9 8 8 8 8 6 6 5 4 4 3 4 6 7 6 6 6 6 6 8 8 8
17 16 17 17 17 17 16 14 15 13 13 13 12 11 12 14 14 14 13 12 10 9 8 9 9 8 7 6 6 5 5 3 3 3 6 7 8 8 7 6 7 8 9
15 15 15 16 17 17 17 17 16 15 14 11 12 13 13 13 14 14 14 12 11 10 10 9 8 9 9 9 7 6 6 5 7 6 4 4 6 7 7 7 7 7 8
13 13 14 15 16 17 18 18 18 18 16 14 14 13 13 11 12 14 14 13 12 11 10 10 9 11 10 9 8 7 7 6 6 6 6 6 5 5 6 6 7 7 8
Wind_Direction
149 141 139 141 137 134 131 131 131 128 126 124 121 119 116 114 111 110 108 107 107 107 108 110 111 109 109 108 107 106 105 104 104 104 103 103 103 105 107 113 113 103 104
145 140 142 143 139 135 132 130 130 128 126 124 123 121 117 114 111 110 109 108 108 108 108 108 110 110 110 109 109 108 107 106 106 108 110 106 103 102 99 92 90 103 106
142 141 146 143 139 136 133 130 130 129 128 125 123 121 119 116 113 112 111 110 109 109 109 110 111 109 109 109 109 109 109 108 111 122 129 111 104 99 97 96 99 106 105
143 144 147 142 140 136 134 132 131 130 129 128 126 124 122 119 116 114 112 111 110 110 109 110 110 109 110 110 110 109 110 112 122 150 116 106 107 104 104 104 105 106 106
144 144 140 145 142 139 136 134 133 132 131 130 129 127 125 120 117 115 113 112 112 111 111 110 110 109 110 112 112 112 113 118 141 123 99 103 105 108 108 107 106 106 106
147 145 142 148 144 142 140 138 136 135 134 132 130 128 125 122 119 117 116 113 113 113 112 112 111 111 112 113 114 115 119 139 153 104 109 108 107 110 109 109 108 107 106
149 145 144 149 147 145 143 141 139 137 135 132 130 127 125 123 120 119 117 115 115 114 114 114 114 113 112 113 115 117 123 155 109 107 105 102 105 110 109 108 108 108 107
150 146 144 150 149 148 146 144 141 140 137 134 132 130 127 124 122 120 118 119 118 118 117 116 114 113 113 114 117 121 132 172 115 109 107 104 107 112 112 110 109 107 107
152 148 151 154 153 151 149 147 145 143 140 138 134 131 129 126 123 121 119 119 119 119 119 117 116 115 117 118 120 122 125 217 116 114 111 109 115 117 117 116 113 111 110
156 154 156 157 157 158 155 151 148 146 144 141 138 135 132 129 128 128 129 121 122 121 120 120 118 117 121 123 126 129 146 194 116 118 111 114 122 122 121 119 117 114 114
162 160 161 158 161 163 158 153 155 153 151 150 146 142 152 150 141 146 119 124 126 123 122 122 121 122 129 131 134 147 177 139 116 108 105 117 128 125 124 123 121 119 117
168 168 167 162 165 165 158 156 164 162 159 166 152 155 157 139 139 126 122 130 129 128 129 126 130 149 166 140 145 178 152 125 124 119 112 126 134 132 130 128 127 127 123
171 171 170 167 171 168 162 164 167 163 160 164 157 158 148 147 144 139 145 144 143 153 150 144 167 160 139 121 139 144 123 130 120 119 122 137 142 141 138 136 135 135 136
175 176 172 170 172 174 171 167 170 167 166 165 159 167 156 155 154 146 154 153 156 157 148 159 152 133 126 137 135 125 135 137 124 115 126 143 150 152 150 149 148 148 148
179 178 175 175 174 175 174 177 175 171 170 162 162 168 166 161 161 152 153 159 164 153 161 165 156 143 144 148 146 136 133 124 126 132 131 148 157 160 162 162 164 163 163
183 181 176 181 178 177 178 182 176 174 170 170 171 169 177 168 161 160 164 170 167 166 158 162 155 162 166 152 152 143 154 143 138 145 140 153 166 173 178 180 178 178 178
184 180 179 184 182 182 183 184 181 180 177 179 171 170 179 177 167 173 172 178 173 162 158 173 161 171 176 172 164 157 159 163 153 153 153 160 167 178 187 192 194 193 192
184 181 182 185 184 186 186 187 186 186 182 182 178 176 182 182 177 184 183 184 170 178 179 172 186 182 177 178 171 177 163 164 171 171 174 177 179 173 179 189 200 203 206
186 184 184 187 186 188 187 187 192 187 187 187 185 182 182 186 186 194 191 178 182 188 188 194 171 193 182 185 181 178 188 178 174 188 182 184 184 194 179 170 189 202 209
187 187 188 187 187 187 187 188 194 192 193 194 191 188 184 187 192 199 193 185 198 193 191 197 172 188 196 200 206 175 192 185 191 185 200 192 189 199 202 182 189 196 204
189 189 190 189 188 187 188 190 195 195 196 197 197 192 192 194 193 202 203 185 204 202 200 196 193 186 199 197 203 196 194 203 199 197 211 211 197 202 205 205 218 204 193
191 192 192 192 191 192 193 194 199 198 199 198 198 192 198 198 199 203 210 202 201 204 202 205 204 209 203 199 217 212 207 200 206 211 206 216 219 209 213 211 212 219 237
193 193 193 194 194 196 194 193 196 197 202 198 200 199 201 201 203 210 206 214 205 212 205 206 205 210 215 208 222 233 231 225 198 194 213 220 218 222 226 219 217 215 225
195 193 194 194 195 196 194 196 198 200 203 204 201 200 198 201 204 207 211 212 213 216 210 210 209 213 216 221 214 235 259 295 252 212 205 210 215 223 234 234 226 217 222
193 192 195 195 197 197 198 199 203 210 210 205 202 201 200 200 205 208 211 210 212 218 214 219 213 218 218 226 224 220 225 229 247 260 240 219 213 220 220 226 234 233 225
192 192 193 195 198 199 199 201 207 212 211 206 203 201 202 203 205 208 210 209 212 217 213 214 216 216 226 229 234 231 228 228 233 240 246 241 237 226 219 228 234 233 234
Height
1522 1524 1525 1527 1530 1532 1534 1536 1537 1539 1540 1541 1543 1544 1545 1546 1547 1548 1549 1550 1551 1552 1553 1554 1555 1556 1557 1558 1559 1560 1561 1562 1563 1563 1564 1565 1566 1567 1568 1569 1571 1571 1571
1522 1524 1526 1529 1532 1534 1536 1538 1540 1541 1542 1544 1545 1546 1548 1548 1550 1551 1552 1553 1554 1555 1556 1557 1558 1559 1560 1561 1562 1563 1564 1565 1566 1566 1567 1568 1569 1570 1571 1572 1573 1573 1574
1523 1524 1527 1530 1533 1536 1538 1540 1542 1543 1545 1546 1548 1549 1550 1551 1552 1553 1554 1555 1556 1557 1558 1559 1560 1561 1562 1563 1564 1565 1566 1567 1568 1569 1571 1573 1572 1573 1574 1574 1575 1576 1577
1524 1526 1529 1532 1535 1538 1540 1542 1544 1545 1547 1548 1550 1551 1552 1554 1555 1556 1557 1558 1559 1560 1561 1562 1563 1564 1565 1566 1567 1568 1569 1570 1571 1573 1576 1576 1575 1575 1576 1577 1577 1578 1579
1526 1529 1530 1533 1537 1539 1542 1544 1546 1547 1549 1551 1552 1553 1555 1556 1557 1558 1559 1560 1561 1562 1564 1564 1565 1566 1567 1568 1569 1570 1571 1573 1574 1576 1577 1578 1577 1578 1579 1580 1580 1581 1582
1528 1531 1532 1535 1538 1541 1543 1546 1547 1549 1551 1552 1554 1555 1557 1558 1559 1560 1561 1562 1564 1565 1566 1567 1568 1569 1570 1571 1572 1573 1574 1575 1577 1579 1579 1580 1580 1580 1581 1582 1582 1583 1584
1530 1533 1534 1537 1540 1543 1545 1547 1549 1551 1553 1554 1556 1557 1558 1560 1561 1562 1563 1565 1566 1567 1568 1570 1571 1571 1572 1573 1574 1575 1576 1577 1581 1581 1582 1582 1582 1582 1583 1584 1585 1585 1586
1532 1535 1535 1538 1541 1544 1547 1549 1551 1552 1554 1556 1557 1559 1560 1561 1563 1564 1565 1567 1568 1569 1570 1572 1573 1574 1575 1576 1576 1577 1578 1579 1583 1584 1584 1584 1583 1584 1585 1586 1587 1587 1588
1533 1536 1537 1540 1542 1545 1548 1550 1552 1554 1556 1557 1559 1560 1562 1563 1565 1566 1568 1569 1570 1571 1573 1574 1575 1576 1577 1578 1579 1579 1580 1581 1586 1586 1586 1585 1585 1586 1587 1588 1588 1589 1590
1534 1537 1539 1542 1544 1546 1549 1551 1553 1555 1557 1559 1560 1562 1563 1565 1566 1568 1570 1571 1572 1573 1575 1576 1577 1578 1579 1580 1581 1582 1583 1584 1588 1588 1588 1587 1587 1588 1589 1589 1590 1591 1592
1534 1537 1540 1542 1545 1548 1551 1552 1554 1556 1558 1560 1562 1563 1565 1568 1569 1570 1571 1572 1574 1575 1576 1578 1579 1580 1581 1582 1583 1584 1585 1588 1589 1590 1589 1588 1589 1590 1590 1591 1592 1593 1593
1533 1536 1540 1543 1545 1549 1552 1552 1555 1558 1559 1561 1563 1565 1567 1569 1571 1572 1572 1573 1575 1577 1578 1579 1581 1582 1583 1585 1585 1585 1588 1589 1590 1590 1589 1589 1590 1591 1592 1593 1593 1594 1595
1531 1535 1539 1542 1545 1549 1551 1553 1556 1558 1559 1562 1563 1565 1567 1569 1571 1573 1574 1575 1576 1578 1580 1581 1583 1585 1586 1587 1587 1588 1589 1591 1591 1592 1590 1590 1591 1592 1593 1594 1595 1595 1596
1530 1534 1537 1540 1543 1547 1551 1553 1555 1558 1560 1562 1563 1566 1568 1570 1571 1573 1575 1577 1578 1580 1581 1583 1584 1585 1586 1587 1588 1589 1590 1591 1592 1592 1591 1591 1592 1593 1594 1595 1595 1596 1597
1528 1532 1535 1538 1542 1545 1548 1552 1555 1557 1560 1562 1563 1565 1567 1570 1571 1573 1575 1577 1579 1581 1582 1583 1584 1585 1586 1587 1589 1590 1591 1591 1592 1593 1592 1592 1593 1594 1594 1595 1596 1596 1597
1526 1530 1534 1537 1540 1543 1547 1550 1553 1556 1558 1561 1563 1565 1567 1570 1571 1573 1574 1577 1579 1581 1583 1583 1585 1586 1587 1588 1589 1590 1591 1592 1592 1593 1594 1593 1593 1594 1595 1595 1596 1596 1597
1525 1529 1532 1535 1539 1542 1545 1549 1552 1555 1558 1560 1562 1563 1566 1569 1570 1572 1575 1577 1579 1580 1581 1583 1584 1586 1587 1588 1589 1590 1591 1592 1593 1593 1594 1594 1594 1594 1595 1595 1596 1596 1597
1523 1526 1529 1533 1537 1540 1544 1547 1551 1554 1556 1559 1561 1563 1564 1567 1569 1571 1574 1577 1578 1580 1581 1583 1584 1586 1587 1588 1589 1590 1591 1591 1592 1593 1594 1594 1595 1596 1595 1595 1595 1596 1596
1520 1523 1526 1530 1534 1538 1541 1545 1548 1551 1554 1557 1559 1562 1563 1565 1568 1570 1573 1575 1576 1579 1581 1583 1584 1585 1587 1588 1589 1589 1591 1592 1592 1593 1594 1594 1594 1595 1595 1594 1594 1595 1595
1517 1521 1524 1528 1532 1536 1539 1542 1546 1549 1551 1555 1557 1559 1561 1564 1566 1569 1571 1573 1575 1578 1579 1581 1582 1584 1586 1587 1589 1590 1590 1591 1592 1592 1593 1594 1594 1594 1595 1595 1594 1594 1594
1514 1518 1521 1525 1529 1532 1536 1539 1543 1545 1549 1552 1555 1557 1559 1562 1564 1566 1570 1571 1573 1576 1578 1580 1581 1583 1585 1586 1588 1589 1589 1590 1591 1591 1592 1593 1593 1593 1593 1593 1594 1594 1594
1510 1514 1518 1522 1526 1529 1532 1536 1539 1543 1546 1549 1552 1554 1557 1559 1562 1565 1567 1569 1571 1574 1576 1577 1579 1582 1584 1585 1586 1587 1588 1590 1589 1590 1590 1591 1591 1592 1592 1592 1592 1592 1593
1506 1510 1514 1518 1521 1525 1529 1533 1537 1540 1542 1545 1548 1550 1553 1556 1559 1562 1564 1567 1569 1572 1574 1575 1577 1579 1581 1583 1584 1586 1586 1586 1587 1588 1588 1589 1589 1589 1590 1590 1590 1590 1590
1502 1506 1509 1513 1516 1520 1524 1528 1531 1534 1537 1540 1543 1547 1550 1553 1556 1559 1561 1564 1566 1569 1571 1573 1575 1577 1579 1581 1582 1583 1585 1585 1585 1585 1586 1586 1586 1587 1588 1588 1589 1588 1588
1499 1502 1505 1508 1512 1515 1519 1522 1526 1529 1533 1536 1540 1542 1545 1549 1552 1555 1558 1561 1563 1566 1568 1570 1572 1573 1576 1578 1580 1581 1582 1583 1584 1584 1584 1584 1585 1585 1585 1585 1586 1586 1586
1496 1498 1501 1503 1507 1510 1513 1516 1520 1524 1527 1531 1534 1538 1541 1544 1547 1550 1554 1557 1559 1562 1564 1566 1568 1570 1572 1574 1576 1578 1579 1580 1581 1582 1582 1582 1582 1583 1583 1583 1583 1583 1583